DAL864 KMSY-MMMD

Flight info

Callsign DAL864
Flight time N/A
Altitude 37000
Route LEV A770 KEHLI UA770 MID
Aircraft A321/M-SDE3FGHIRWY/LB1

Departure

Time 2026-05-06 14:28
Airport Louis Armstrong New Orleans International Airport (KMSY)

Arrival

Time N/A
Airport Manuel Crescencio Rejón International Airport (MMMD)
Time Latitude Longitude Altitude Speed Heading
2026-05-06 14:07 29.98684 -90.25393 16 ft 0 kts 119°
2026-05-06 14:20 29.98689 -90.25403 16 ft 4 kts 121°
2026-05-06 14:21 29.98702 -90.25429 15 ft 4 kts 104°
2026-05-06 14:21 29.98702 -90.25446 16 ft 1 kts 36°
2026-05-06 14:21 29.98701 -90.25446 16 ft 0 kts 36°
2026-05-06 14:23 29.98711 -90.25438 16 ft 4 kts 37°
2026-05-06 14:23 29.98749 -90.25404 15 ft 10 kts 37°
2026-05-06 14:23 29.98830 -90.25360 13 ft 14 kts 351°
2026-05-06 14:23 29.98883 -90.25455 14 ft 18 kts 286°
2026-05-06 14:24 29.98921 -90.25614 18 ft 24 kts 285°
2026-05-06 14:24 29.98972 -90.25827 16 ft 28 kts 285°
2026-05-06 14:24 29.99025 -90.26042 15 ft 28 kts 285°
2026-05-06 14:24 29.99077 -90.26259 12 ft 28 kts 285°
2026-05-06 14:25 29.99128 -90.26472 13 ft 27 kts 285°
2026-05-06 14:25 29.99178 -90.26684 11 ft 27 kts 287°
2026-05-06 14:25 29.99227 -90.26882 14 ft 25 kts 284°
2026-05-06 14:25 29.99273 -90.27078 12 ft 25 kts 286°
2026-05-06 14:26 29.99320 -90.27271 11 ft 25 kts 285°
2026-05-06 14:26 29.99370 -90.27471 6 ft 26 kts 285°
2026-05-06 14:26 29.99420 -90.27669 7 ft 25 kts 284°
2026-05-06 14:26 29.99447 -90.27797 6 ft 25 kts 284°
2026-05-06 14:27 29.99491 -90.27984 8 ft 23 kts 286°
2026-05-06 14:27 29.99539 -90.28156 12 ft 21 kts 306°
2026-05-06 14:27 29.99641 -90.28170 10 ft 12 kts 24°
2026-05-06 14:27 29.99638 -90.28065 9 ft 20 kts 105°
2026-05-06 14:28 29.99538 -90.27649 4 ft 88 kts 105°
2026-05-06 14:28 29.99325 -90.26767 17 ft 138 kts 106°
2026-05-06 14:28 29.99030 -90.25558 121 ft 167 kts 107°
2026-05-06 14:28 29.98740 -90.24279 700 ft 163 kts 110°
2026-05-06 14:29 29.98462 -90.23002 1204 ft 166 kts 111°
2026-05-06 14:29 29.98124 -90.21704 1744 ft 167 kts 117°
2026-05-06 14:29 29.97517 -90.20601 2111 ft 163 kts 154°
2026-05-06 14:29 29.96432 -90.20346 2471 ft 165 kts 185°
2026-05-06 14:30 29.95234 -90.20348 2744 ft 183 kts 181°
2026-05-06 14:30 29.93886 -90.20245 3011 ft 199 kts 180°
2026-05-06 14:30 29.92481 -90.20107 3306 ft 213 kts 178°
2026-05-06 14:30 29.90901 -90.19934 3605 ft 235 kts 178°
2026-05-06 14:31 29.89237 -90.19751 4123 ft 250 kts 178°
2026-05-06 14:31 29.87483 -90.19540 4971 ft 250 kts 178°
2026-05-06 14:31 29.85754 -90.19336 5740 ft 251 kts 178°
2026-05-06 14:31 29.84004 -90.19128 6512 ft 254 kts 178°
2026-05-06 14:32 29.82239 -90.18913 7216 ft 256 kts 178°
2026-05-06 14:32 29.80460 -90.18694 7939 ft 258 kts 178°
2026-05-06 14:32 29.78667 -90.18467 8624 ft 262 kts 178°
2026-05-06 14:32 29.76823 -90.18209 9122 ft 272 kts 177°
2026-05-06 14:33 29.74912 -90.17928 9622 ft 281 kts 176°
2026-05-06 14:33 29.72952 -90.17644 10124 ft 287 kts 177°
2026-05-06 14:33 29.70893 -90.17369 10279 ft 309 kts 177°
2026-05-06 14:33 29.68686 -90.17081 10399 ft 329 kts 177°
2026-05-06 14:34 29.66346 -90.16776 10511 ft 348 kts 177°
2026-05-06 14:34 29.63898 -90.16457 10631 ft 366 kts 177°
2026-05-06 14:34 29.61331 -90.16122 10954 ft 375 kts 176°
2026-05-06 14:34 29.58717 -90.15777 11446 ft 380 kts 176°
2026-05-06 14:35 29.56067 -90.15422 11969 ft 383 kts 176°
2026-05-06 14:35 29.53374 -90.15060 12495 ft 386 kts 176°
2026-05-06 14:35 29.50690 -90.14703 13008 ft 390 kts 176°
2026-05-06 14:35 29.47983 -90.14347 13519 ft 393 kts 176°
2026-05-06 14:36 29.45251 -90.13993 13992 ft 397 kts 176°
2026-05-06 14:36 29.42500 -90.13638 14431 ft 400 kts 177°
2026-05-06 14:36 29.39723 -90.13280 14870 ft 403 kts 177°
2026-05-06 14:36 29.36927 -90.12919 15314 ft 406 kts 177°
2026-05-06 14:37 29.34106 -90.12554 15746 ft 409 kts 177°
2026-05-06 14:37 29.31265 -90.12185 16180 ft 412 kts 177°
2026-05-06 14:37 29.28403 -90.11814 16617 ft 415 kts 178°
2026-05-06 14:37 29.25520 -90.11442 17051 ft 418 kts 178°
2026-05-06 14:38 29.22614 -90.11066 17443 ft 423 kts 178°
2026-05-06 14:38 29.19678 -90.10684 17844 ft 426 kts 178°
2026-05-06 14:38 29.16718 -90.10313 18255 ft 429 kts 179°
2026-05-06 14:38 29.13736 -90.10048 18630 ft 431 kts 181°
2026-05-06 14:39 29.10739 -90.09876 19024 ft 432 kts 182°
2026-05-06 14:39 29.07722 -90.09754 19433 ft 434 kts 183°
2026-05-06 14:39 29.04739 -90.09643 19826 ft 436 kts 183°
2026-05-06 14:39 29.01699 -90.09519 20231 ft 438 kts 183°
2026-05-06 14:40 28.98652 -90.09377 20642 ft 440 kts 182°
2026-05-06 14:40 28.95585 -90.09213 21027 ft 442 kts 182°
2026-05-06 14:40 28.92503 -90.09035 21377 ft 445 kts 182°
2026-05-06 14:40 28.89398 -90.08854 21747 ft 448 kts 182°
2026-05-06 14:41 28.86237 -90.08670 22124 ft 450 kts 182°
2026-05-06 14:41 28.83148 -90.08494 22492 ft 452 kts 182°
2026-05-06 14:41 28.80008 -90.08320 22862 ft 453 kts 183°
2026-05-06 14:41 28.76849 -90.08149 23238 ft 455 kts 183°
2026-05-06 14:42 28.73675 -90.07981 23608 ft 457 kts 183°
2026-05-06 14:42 28.70492 -90.07808 23898 ft 459 kts 183°
2026-05-06 14:42 28.67254 -90.07626 24196 ft 461 kts 183°
2026-05-06 14:42 28.64044 -90.07445 24442 ft 464 kts 183°
2026-05-06 14:43 28.60810 -90.07267 24708 ft 466 kts 183°
2026-05-06 14:43 28.57612 -90.07094 24978 ft 467 kts 183°
2026-05-06 14:43 28.54353 -90.06917 25253 ft 469 kts 183°
2026-05-06 14:43 28.51087 -90.06738 25530 ft 471 kts 183°
2026-05-06 14:44 28.47805 -90.06558 25819 ft 473 kts 183°
2026-05-06 14:44 28.44516 -90.06377 26109 ft 474 kts 183°
2026-05-06 14:44 28.41212 -90.06196 26404 ft 476 kts 183°
2026-05-06 14:45 28.34564 -90.05833 26919 ft 480 kts 183°
2026-05-06 14:45 28.31222 -90.05650 27229 ft 481 kts 183°
2026-05-06 14:45 28.27843 -90.05464 27626 ft 479 kts 183°
2026-05-06 14:45 28.24558 -90.05284 28013 ft 478 kts 183°
2026-05-06 14:46 28.21198 -90.05095 28402 ft 477 kts 183°
2026-05-06 14:46 28.17927 -90.04903 28781 ft 476 kts 183°
2026-05-06 14:46 28.14626 -90.04704 29166 ft 475 kts 183°
2026-05-06 14:46 28.11329 -90.04504 29555 ft 474 kts 183°
2026-05-06 14:47 28.08044 -90.04307 29941 ft 473 kts 183°
2026-05-06 14:47 28.04762 -90.04114 30241 ft 472 kts 183°
2026-05-06 14:47 28.01480 -90.03924 30537 ft 472 kts 183°
2026-05-06 14:47 27.98203 -90.03733 30856 ft 471 kts 183°
2026-05-06 14:48 27.94938 -90.03541 31194 ft 469 kts 183°
2026-05-06 14:48 27.91672 -90.03349 31545 ft 468 kts 183°
2026-05-06 14:48 27.88428 -90.03159 31908 ft 466 kts 183°
2026-05-06 14:48 27.85190 -90.02970 32265 ft 465 kts 183°
2026-05-06 14:49 27.81965 -90.02784 32624 ft 463 kts 183°
2026-05-06 14:49 27.78754 -90.02600 32986 ft 462 kts 183°
2026-05-06 14:49 27.75547 -90.02413 33353 ft 460 kts 183°
2026-05-06 14:49 27.72354 -90.02225 33711 ft 459 kts 183°
2026-05-06 14:50 27.69174 -90.02036 34058 ft 457 kts 183°
2026-05-06 14:50 27.65995 -90.01847 34358 ft 456 kts 183°
2026-05-06 14:50 27.62833 -90.01662 34638 ft 455 kts 183°
2026-05-06 14:50 27.59671 -90.01478 34918 ft 454 kts 183°
2026-05-06 14:51 27.56518 -90.01294 35184 ft 454 kts 183°
2026-05-06 14:51 27.53367 -90.01113 35459 ft 453 kts 184°
2026-05-06 14:51 27.50223 -90.00935 35733 ft 452 kts 184°
2026-05-06 14:51 27.47082 -90.00759 35971 ft 452 kts 183°
2026-05-06 14:52 27.43945 -90.00579 36240 ft 451 kts 183°
2026-05-06 14:52 27.40818 -90.00393 36497 ft 450 kts 183°
2026-05-06 14:52 27.37695 -90.00208 36742 ft 449 kts 183°
2026-05-06 14:52 27.34572 -90.00024 36950 ft 450 kts 183°
2026-05-06 14:53 27.31444 -89.99841 37010 ft 450 kts 183°
2026-05-06 14:53 27.25196 -89.99482 37012 ft 449 kts 183°
2026-05-06 14:54 27.18958 -89.99127 37012 ft 449 kts 183°
2026-05-06 14:54 27.12721 -89.98765 37015 ft 449 kts 183°
2026-05-06 14:55 27.06516 -89.98399 37007 ft 449 kts 183°
2026-05-06 14:55 27.00267 -89.98041 37013 ft 450 kts 183°
2026-05-06 14:56 26.94017 -89.97684 37017 ft 450 kts 183°
2026-05-06 14:56 26.87763 -89.97330 37020 ft 450 kts 183°
2026-05-06 14:57 26.81505 -89.96965 37008 ft 450 kts 182°
2026-05-06 14:57 26.75242 -89.96602 37010 ft 450 kts 182°
2026-05-06 14:58 26.68975 -89.96250 37016 ft 451 kts 183°
2026-05-06 14:58 26.62715 -89.95894 37022 ft 451 kts 182°
2026-05-06 14:59 26.56452 -89.95534 37003 ft 451 kts 182°
2026-05-06 14:59 26.50189 -89.95176 37003 ft 451 kts 182°
2026-05-06 15:00 26.43921 -89.94819 37014 ft 451 kts 182°
2026-05-06 15:00 26.37654 -89.94463 37020 ft 451 kts 182°
2026-05-06 15:01 26.31389 -89.94107 37016 ft 451 kts 182°
2026-05-06 15:01 26.25115 -89.93757 37001 ft 451 kts 182°
2026-05-06 15:02 26.18844 -89.93411 37002 ft 452 kts 182°
2026-05-06 15:02 26.12564 -89.93059 37007 ft 452 kts 182°
2026-05-06 15:03 26.06281 -89.92710 37008 ft 452 kts 182°
2026-05-06 15:03 25.99996 -89.92360 37013 ft 452 kts 182°
2026-05-06 15:04 25.93707 -89.92009 36998 ft 452 kts 182°
2026-05-06 15:04 25.87415 -89.91661 37005 ft 453 kts 182°
2026-05-06 15:05 25.82186 -89.91363 37009 ft 453 kts 182°
2026-05-06 15:05 25.75891 -89.91014 37010 ft 453 kts 182°
2026-05-06 15:06 25.69595 -89.90679 37015 ft 453 kts 182°
2026-05-06 15:06 25.63295 -89.90326 37003 ft 453 kts 182°
2026-05-06 15:07 25.56986 -89.89965 37001 ft 454 kts 182°
2026-05-06 15:07 25.50674 -89.89613 37006 ft 454 kts 182°
2026-05-06 15:08 25.44363 -89.89269 37010 ft 454 kts 182°
2026-05-06 15:08 25.38049 -89.88928 37012 ft 454 kts 182°
2026-05-06 15:09 25.31732 -89.88577 37003 ft 454 kts 181°
2026-05-06 15:09 25.25410 -89.88226 37006 ft 455 kts 181°
2026-05-06 15:10 25.19082 -89.87871 37009 ft 455 kts 181°
2026-05-06 15:10 25.12750 -89.87526 37012 ft 455 kts 181°
2026-05-06 15:11 25.06423 -89.87181 37011 ft 455 kts 181°
2026-05-06 15:11 25.00093 -89.86834 36999 ft 455 kts 181°
2026-05-06 15:12 24.93761 -89.86490 37003 ft 456 kts 181°
2026-05-06 15:12 24.87426 -89.86141 37008 ft 456 kts 181°
2026-05-06 15:13 24.81134 -89.85792 37012 ft 456 kts 181°
2026-05-06 15:13 24.74788 -89.85445 37014 ft 456 kts 181°
2026-05-06 15:14 24.68449 -89.85111 37016 ft 456 kts 181°
2026-05-06 15:14 24.62108 -89.84766 37016 ft 456 kts 181°
2026-05-06 15:15 24.55770 -89.84416 37017 ft 456 kts 181°
2026-05-06 15:15 24.49432 -89.84078 37017 ft 456 kts 181°
2026-05-06 15:16 24.43094 -89.83734 37016 ft 456 kts 181°
2026-05-06 15:16 24.36756 -89.83398 37003 ft 456 kts 181°
2026-05-06 15:17 24.30413 -89.83083 37007 ft 456 kts 181°
2026-05-06 15:17 24.24068 -89.82767 37012 ft 456 kts 181°
2026-05-06 15:18 24.17723 -89.82446 37014 ft 457 kts 181°
2026-05-06 15:18 24.11370 -89.82111 37015 ft 457 kts 181°
2026-05-06 15:19 24.05061 -89.81774 37003 ft 457 kts 181°
2026-05-06 15:19 23.98711 -89.81451 37008 ft 457 kts 181°
2026-05-06 15:20 23.92356 -89.81139 37009 ft 457 kts 181°
2026-05-06 15:20 23.86000 -89.80816 37013 ft 457 kts 181°
2026-05-06 15:21 23.79643 -89.80484 37015 ft 457 kts 181°
2026-05-06 15:21 23.73279 -89.80158 37011 ft 457 kts 180°
2026-05-06 15:22 23.66923 -89.79821 37015 ft 457 kts 180°
2026-05-06 15:22 23.60562 -89.79477 37017 ft 457 kts 180°
2026-05-06 15:23 23.54203 -89.79138 37018 ft 457 kts 180°
2026-05-06 15:23 23.47847 -89.78804 37018 ft 457 kts 180°
2026-05-06 15:24 23.41490 -89.78474 37006 ft 457 kts 180°
2026-05-06 15:24 23.35131 -89.78135 37014 ft 457 kts 180°
2026-05-06 15:25 23.28819 -89.77808 37017 ft 457 kts 180°
2026-05-06 15:25 23.22465 -89.77477 37018 ft 457 kts 180°
2026-05-06 15:26 23.16110 -89.77144 37016 ft 457 kts 180°
2026-05-06 15:26 23.09758 -89.76803 37006 ft 457 kts 180°
2026-05-06 15:27 23.03413 -89.76462 37010 ft 457 kts 180°
2026-05-06 15:27 22.97065 -89.76129 37014 ft 457 kts 180°
2026-05-06 15:28 22.90719 -89.75797 37010 ft 457 kts 180°
2026-05-06 15:28 22.84376 -89.75466 37010 ft 457 kts 180°
2026-05-06 15:29 22.78027 -89.75133 37004 ft 457 kts 180°
2026-05-06 15:29 22.71681 -89.74815 37010 ft 457 kts 180°
2026-05-06 15:30 22.65332 -89.74486 36773 ft 456 kts 180°
2026-05-06 15:30 22.62161 -89.74316 36517 ft 456 kts 180°
2026-05-06 15:30 22.58996 -89.74149 36268 ft 456 kts 180°
2026-05-06 15:30 22.55824 -89.73983 36020 ft 456 kts 180°
2026-05-06 15:31 22.52650 -89.73816 35780 ft 457 kts 180°
2026-05-06 15:31 22.49473 -89.73648 35541 ft 458 kts 180°
2026-05-06 15:31 22.46291 -89.73483 35303 ft 458 kts 180°
2026-05-06 15:32 22.39914 -89.73157 34836 ft 459 kts 181°
2026-05-06 15:32 22.36764 -89.72995 34606 ft 459 kts 180°
2026-05-06 15:32 22.33527 -89.72823 34045 ft 462 kts 181°
2026-05-06 15:32 22.30287 -89.72654 32985 ft 469 kts 180°
2026-05-06 15:33 22.27022 -89.72486 32075 ft 471 kts 179°
2026-05-06 15:33 22.23738 -89.72316 31185 ft 472 kts 179°
2026-05-06 15:33 22.20490 -89.72144 30213 ft 475 kts 179°
2026-05-06 15:33 22.17189 -89.71969 29233 ft 474 kts 179°
2026-05-06 15:34 22.13886 -89.71800 28105 ft 476 kts 179°
2026-05-06 15:34 22.10553 -89.71632 26898 ft 481 kts 178°
2026-05-06 15:34 22.07194 -89.71463 25708 ft 486 kts 177°
2026-05-06 15:34 22.03798 -89.71290 24529 ft 491 kts 176°
2026-05-06 15:35 22.00362 -89.71116 23355 ft 496 kts 176°
2026-05-06 15:35 21.96922 -89.70938 22522 ft 490 kts 176°
2026-05-06 15:35 21.93528 -89.70760 21578 ft 488 kts 176°
2026-05-06 15:35 21.90164 -89.70578 20788 ft 481 kts 175°
2026-05-06 15:36 21.86832 -89.70396 19975 ft 477 kts 175°
2026-05-06 15:36 21.83528 -89.70215 19160 ft 473 kts 176°
2026-05-06 15:36 21.80259 -89.70034 18415 ft 468 kts 175°
2026-05-06 15:36 21.77007 -89.69854 17586 ft 465 kts 175°
2026-05-06 15:37 21.73798 -89.69682 16814 ft 460 kts 175°
2026-05-06 15:37 21.70623 -89.69516 16088 ft 455 kts 176°
2026-05-06 15:37 21.67483 -89.69356 15386 ft 449 kts 176°
2026-05-06 15:37 21.64380 -89.69201 14718 ft 444 kts 175°
2026-05-06 15:38 21.61309 -89.69048 14067 ft 439 kts 175°
2026-05-06 15:38 21.58278 -89.68898 13393 ft 434 kts 175°
2026-05-06 15:38 21.55285 -89.68751 12765 ft 427 kts 176°
2026-05-06 15:38 21.52341 -89.68607 12139 ft 421 kts 175°
2026-05-06 15:39 21.49436 -89.68464 11537 ft 415 kts 175°
2026-05-06 15:39 21.46738 -89.68330 11294 ft 401 kts 175°